User: anonymous   Login
Location: Unspecified
(0.0000°N, 0.0000°E)
Time: 18:39:48
(UTC+00:00)
Language:

Tiros 1 despin weight - Orbit

View from above orbital plane
View from above orbital plane
View from above satellite
View from above satellite

Ground track
Ground track

The orbit data is extracted from the following two-line orbital elements,

1 00115U 60002D   16273.18129562  .00000389  00000-0  74442-4 0  9993
2 00115  48.1671 317.8543 0034343  28.5191 331.7591 14.82887289 11480
Epoch (UTC): 29 September 2016 04:21:03
Eccentricity: 0.0034343
inclination: 48.1671°
perigee height: 596 km
apogee height: 644 km
right ascension of ascending node: 317.8543°
argument of perigee: 28.5191°
revolutions per day: 14.82887289
mean anomaly at epoch: 331.7591°
orbit number at epoch: 1148

The dashed part of the orbit path shows where the satellite is in the earth's shadow,  

DLR